Location: Campestrin
(46.4667°N, 11.7167°E)
Time: 04:44:56
(UTC+00:00)

USA 281 - Pass Details

Date: 18 April 2021
Orbit: 1078 x 1081 km, 106.0° (Epoch: 14 May)

Event Time Altitude Azimuth Distance (km) Brightness Sun altitude
Exits shadow 23:33:13 81° 342° (NNW) 1,097 3.1 -32.2°
Drops below altitude 10° 23:39:27 10° 335° (NNW) 2,929 6.1 -32.0°
Sets 23:41:58 0° 336° (NNW) 3,889 6.9 -32.0°
